This is the latest recevied weather packets stored in our database for station/object JR5YHL-13. If no packets are shown the sender has not sent any weather packets the latest 10 day(s).
| Time | Temp. | Humidity | Pressure | Rain* | Wind** | Luminosity | Snow |
|---|---|---|---|---|---|---|---|
| 1777907216 | 12.78° C | 87% | 1017 hPa | 0 mm | - | - | - |
| 1777906618 | 12.78° C | 84% | 1016.9 hPa | 0 mm | - | - | - |
| 1777906020 | 12.22° C | 84% | 1017 hPa | 0 mm | - | - | - |
| 1777905423 | 12.78° C | 85% | 1016.9 hPa | 0 mm | - | - | - |
| 1777904825 | 12.78° C | 81% | 1016.8 hPa | 0 mm | - | - | - |
| 1777904227 | 12.78° C | 83% | 1016.8 hPa | 0 mm | - | - | - |
| 1777903630 | 13.33° C | 83% | 1016.7 hPa | 0 mm | - | - | - |
| 1777903032 | 13.33° C | 78% | 1016.5 hPa | 0 mm | - | - | - |
| 1777902434 | 13.33° C | 79% | 1016.3 hPa | 0 mm | - | - | - |
| 1777901837 | 13.33° C | 81% | 1016.3 hPa | 0 mm | - | - | - |
| 1777901239 | 13.33° C | 77% | 1016.4 hPa | 0 mm | - | - | - |
| 1777900641 | 13.33° C | 76% | 1016.5 hPa | 0 mm | - | - | - |
| 1777900043 | 13.89° C | 71% | 1016.3 hPa | 0 mm | - | - | - |
| 1777899445 | 13.89° C | 70% | 1016.3 hPa | 0 mm | - | - | - |
| 1777898848 | 13.89° C | 71% | 1015.9 hPa | 0 mm | - | - | - |
| 1777898250 | 13.89° C | 67% | 1015.8 hPa | 0 mm | - | - | - |
| 1777897652 | 14.44° C | 63% | 1015.5 hPa | 0 mm | - | - | - |
| 1777897055 | 14.44° C | 62% | 1015.4 hPa | 0 mm | - | - | - |
| 1777896457 | 14.44° C | 59% | 1015.2 hPa | 0 mm | - | - | - |
| 1777895860 | 14.44° C | 59% | 1015.1 hPa | 0 mm | - | - | - |
| 1777895262 | 15° C | 60% | 1015 hPa | 0 mm | - | - | - |
| 1777894664 | 15.56° C | 54% | 1014.7 hPa | 0 mm | - | - | - |
| 1777894067 | 15.56° C | 54% | 1014.4 hPa | 0 mm | - | - | - |
| 1777893469 | 16.11° C | 48% | 1014.3 hPa | 0 mm | - | - | - |
| 1777892871 | 15.56° C | 44% | 1014.3 hPa | 0 mm | - | - | - |
* Rain latest hour (hover to see other rain measurements)
** Current wind speed in m/s (hover to see current wind gust speed)